RH
89 86 80 82 62 62 72 97 86 83 97 100 98 95 98 97 90 92 74 43 18 12 30 33 39 37 32 12 9 8 8 9
83 79 85 96 86 97 98 95 96 95 96 97 88 97 97 100 86 72 33 15 30 35 34 33 37 22 11 10 10 11 12 13
82 88 100 79 78 95 96 96 95 96 96 95 96 96 96 90 53 23 21 47 43 46 39 28 13 12 10 10 10 10 11 11
73 74 95 96 95 97 83 96 96 99 97 96 95 95 95 52 33 47 50 48 51 42 17 14 11 10 10 10 12 12 12 11
70 60 71 91 88 91 96 97 95 96 97 97 96 94 85 68 60 54 54 53 51 25 15 10 10 10 12 13 13 11 10 9
69 86 63 72 95 97 98 97 96 97 97 96 95 90 76 71 64 59 61 42 20 14 11 11 12 12 11 12 12 10 8 7
74 83 74 96 95 97 98 97 98 96 97 84 81 83 75 63 61 60 22 18 13 12 12 12 10 10 11 12 10 9 7 6
96 96 96 91 93 98 96 97 83 63 53 55 62 62 51 29 28 19 20 15 13 13 12 11 11 10 10 10 9 10 12 14
72 65 54 56 51 50 42 36 37 38 46 57 50 40 31 19 18 19 16 14 13 13 13 12 11 10 11 11 12 15 17 18
26 24 27 42 57 30 32 54 50 46 64 60 60 56 19 17 17 17 16 14 14 14 12 12 15 23 26 17 16 19 21 25
24 24 27 36 31 30 34 39 64 78 71 69 64 32 18 17 16 17 16 14 13 12 12 21 31 35 32 17 21 25 30 32
31 29 27 26 23 20 29 52 61 74 79 66 30 18 17 18 19 18 16 14 14 23 38 49 44 33 25 22 30 37 39 37
23 20 22 23 26 27 29 39 36 54 65 35 21 18 18 19 18 18 19 29 43 52 61 63 57 47 29 44 55 71 68 48
38 36 39 40 33 25 22 32 38 37 36 40 25 24 21 21 26 54 55 60 60 66 61 57 49 44 51 54 86 67 71 66
36 44 51 50 46 34 25 39 42 39 67 50 58 27 26 39 49 55 66 70 69 61 36 39 44 52 62 76 86 86 59 30
21 25 33 38 48 56 53 26 30 43 84 90 43 32 32 44 52 61 76 76 69 58 65 74 82 60 76 89 83 90 84 46
31 33 30 39 61 57 49 68 50 37 42 80 55 45 49 53 57 69 82 80 76 73 85 72 87 83 97 91 68 79 63 58
28 43 75 67 49 57 70 89 84 73 61 78 54 65 80 83 87 85 82 79 85 94 90 88 84 85 100 81 74 70 55 61
30 39 73 69 42 64 86 72 62 97 98 98 98 98 98 99 97 92 98 97 100 100 86 99 95 95 95 66 75 63 72 72
58 50 68 63 46 65 66 68 76 70 72 86 98 98 98 98 93 99 99 96 99 95 87 100 100 78 46 77 70 70 71 72
Wind_Speed
28 26 27 26 28 31 26 35 24 20 20 24 31 28 23 21 17 16 10 9 7 7 9 13 13 16 19 15 13 16 18 20
21 26 30 30 28 36 47 35 27 30 29 29 34 30 21 19 12 11 10 7 7 7 13 15 17 12 10 13 17 18 20 22
23 29 32 32 37 36 30 31 35 39 51 38 41 30 21 15 15 11 8 8 8 8 12 11 8 10 15 18 21 23 25 28
25 26 28 25 33 37 33 35 37 41 55 46 39 27 17 15 14 12 10 9 9 11 8 8 10 14 18 22 24 27 29 31
33 30 28 36 31 31 35 39 27 35 54 38 32 21 17 14 11 11 10 9 11 10 9 12 14 18 21 25 28 31 33 35
33 28 28 28 25 20 29 31 19 29 26 29 21 16 15 15 12 11 11 11 10 10 12 15 18 22 26 29 32 35 37 38
32 30 24 20 17 18 17 22 21 19 22 22 20 18 16 15 14 13 12 9 10 12 16 19 24 28 31 33 36 37 38 39
20 16 15 14 11 13 14 20 24 22 19 17 15 14 12 11 12 13 10 10 12 15 19 23 27 31 34 37 39 40 40 41
21 20 19 19 18 17 19 19 16 14 14 13 12 11 12 13 12 11 10 12 16 19 23 27 29 34 37 39 39 41 43 44
17 17 17 13 9 8 8 8 9 10 12 13 14 12 12 13 12 10 13 17 22 24 28 30 33 37 40 42 41 44 44 42
13 12 11 10 10 9 9 9 10 12 13 13 12 13 15 14 13 14 18 22 27 30 33 35 40 43 45 44 43 43 42 43
10 9 9 8 7 7 9 12 13 17 18 14 12 15 15 14 15 18 22 27 31 33 36 39 41 45 47 47 43 43 45 47
7 9 9 9 10 12 16 16 17 16 19 15 15 15 14 16 21 23 27 31 33 36 37 40 44 47 49 48 43 45 52 54
12 11 10 8 8 11 13 16 17 17 15 16 15 15 17 23 27 30 32 32 34 34 39 42 47 45 49 51 54 57 55 57
8 8 10 11 10 11 13 16 17 16 18 18 17 19 22 26 29 33 33 34 36 36 40 43 47 48 49 53 52 59 63 62
10 9 11 13 13 14 15 19 21 22 22 20 21 23 25 28 31 32 34 36 40 39 44 48 52 52 50 54 58 60 65 65
13 11 13 14 16 16 18 19 21 21 25 23 24 26 28 31 33 33 34 38 41 46 48 55 60 53 50 64 64 64 63 60
19 18 17 17 17 16 17 18 21 23 26 26 28 28 30 31 33 36 37 42 43 49 56 56 54 49 60 68 66 64 63 59
24 22 21 23 22 19 19 22 25 28 31 30 33 33 31 33 34 40 36 40 44 51 58 49 53 55 70 69 64 64 63 65
29 28 28 26 24 21 22 25 24 29 32 34 37 35 33 34 38 38 42 46 48 50 56 44 51 72 67 64 62 64 66 68
Wind_Direction
254 257 257 266 265 263 261 234 258 247 251 247 252 253 274 257 261 266 220 197 225 242 243 264 275 291 296 295 298 306 312 314
265 258 262 258 260 263 255 225 268 252 252 248 247 259 254 244 241 190 187 207 211 242 259 277 289 291 294 301 305 311 316 313
252 265 244 265 265 237 240 276 281 250 261 258 251 242 234 204 179 192 194 210 246 273 278 273 272 296 303 305 309 316 317 313
243 263 235 253 241 238 259 273 269 256 259 259 250 244 211 181 187 183 209 235 265 281 264 272 290 299 305 308 314 313 311 310
247 254 249 257 267 256 267 270 259 255 251 244 240 215 184 187 199 214 233 252 264 250 260 283 297 305 308 311 314 310 308 306
248 250 251 258 252 274 268 250 244 229 231 228 224 175 176 196 204 222 245 247 224 253 279 293 305 309 309 307 306 306 305 303
240 238 242 226 231 237 216 216 226 217 206 164 150 170 188 204 217 233 217 218 250 275 293 304 307 305 307 305 303 302 302 302
205 194 179 168 143 171 166 150 145 145 147 151 169 186 208 226 215 205 216 247 275 293 301 304 302 302 300 303 306 307 309 308
138 136 132 128 132 132 144 146 144 161 165 166 186 204 217 205 207 221 251 277 287 292 296 294 299 306 308 306 309 310 310 308
140 137 134 130 134 125 141 145 169 190 184 194 212 221 212 211 227 253 274 281 285 290 293 298 300 304 312 311 309 314 309 309
139 139 144 155 167 176 181 196 203 205 208 216 233 232 216 225 249 268 277 283 290 295 295 299 302 305 308 309 309 312 309 310
158 171 183 187 194 202 206 212 220 224 229 239 234 216 224 243 263 277 282 286 291 297 302 305 308 310 309 311 315 314 312 309
192 202 198 201 205 212 216 219 227 226 232 228 217 230 247 264 269 277 282 288 292 293 299 307 312 313 313 311 305 311 317 313
215 221 222 229 235 235 233 230 233 227 220 222 232 248 264 271 273 277 283 290 296 298 305 311 315 311 315 316 311 311 311 311
232 246 260 258 253 252 247 238 231 230 234 237 242 255 264 273 276 282 289 295 298 302 310 314 318 315 310 317 312 308 309 309
230 238 252 262 265 261 251 244 241 240 244 248 257 269 276 287 290 289 294 297 298 297 303 308 311 315 310 317 313 308 309 310
243 251 257 260 259 261 266 259 251 250 257 259 270 278 289 296 298 297 296 296 297 298 304 316 311 306 299 313 312 309 309 308
260 266 278 283 282 272 272 270 273 270 264 267 272 278 287 292 298 296 295 298 297 300 308 308 306 302 301 310 310 308 307 306
272 274 283 281 279 271 277 280 278 286 283 277 278 277 286 291 295 294 292 296 293 298 304 299 292 288 304 306 306 307 307 305
270 270 273 269 268 266 272 278 287 290 288 284 285 281 287 289 295 285 295 292 294 301 301 285 293 301 304 304 307 307 307 309